This is the latest recevied weather packets stored in our database for station/object OK3MS-5. If no packets are shown the sender has not sent any weather packets the latest 10 day(s).
| Time | Temp. | Humidity | Pressure | Rain* | Wind** | Luminosity | Snow |
|---|---|---|---|---|---|---|---|
| 1787858410 | 22.22° C | 63% | 1014.6 hPa | 0 mm | - | 0 W/m² | - |
| 1787858104 | 22.22° C | 63% | 1014.8 hPa | 0 mm | - | 0 W/m² | - |
| 1787857809 | 22.22° C | 63% | 1014.6 hPa | 0 mm | - | 0 W/m² | - |
| 1787857504 | 22.22° C | 62% | 1014.5 hPa | 0 mm | - | 0 W/m² | - |
| 1787857205 | 22.78° C | 62% | 1014.7 hPa | 0 mm | - | 0 W/m² | - |
| 1787856603 | 22.78° C | 60% | 1014.6 hPa | 0 mm | - | 0 W/m² | - |
| 1787856307 | 22.78° C | 61% | 1014.4 hPa | 0 mm | - | 0 W/m² | - |
| 1787856003 | 22.78° C | 61% | 1014.2 hPa | 0 mm | - | 0 W/m² | - |
| 1787855710 | 22.78° C | 61% | 1014.2 hPa | 0 mm | - | 0 W/m² | - |
| 1787855403 | 22.78° C | 61% | 1014.3 hPa | 0 mm | - | 0 W/m² | - |
| 1787855108 | 23.33° C | 60% | 1014.2 hPa | 0 mm | - | 0 W/m² | - |
| 1787854804 | 23.33° C | 60% | 1014.1 hPa | 0 mm | - | 0 W/m² | - |
| 1787854506 | 23.33° C | 59% | 1014.1 hPa | 0 mm | - | 0 W/m² | - |
| 1787854206 | 23.33° C | 59% | 1014.1 hPa | 0 mm | - | 0 W/m² | - |
| 1787853904 | 23.89° C | 59% | 1014 hPa | 0 mm | - | 1 W/m² | - |
| 1787853602 | 23.89° C | 58% | 1014 hPa | 0 mm | - | 1 W/m² | - |
| 1787853304 | 23.89° C | 57% | 1013.9 hPa | 0 mm | - | 2 W/m² | - |
| 1787853003 | 24.44° C | 57% | 1013.8 hPa | 0 mm | - | 3 W/m² | - |
| 1787852709 | 24.44° C | 56% | 1014 hPa | 0 mm | - | 5 W/m² | - |
| 1787852403 | 24.44° C | 56% | 1013.8 hPa | 0 mm | - | 6 W/m² | - |
| 1787852110 | 24.44° C | 56% | 1013.9 hPa | 0 mm | - | 10 W/m² | - |
| 1787851803 | 25° C | 56% | 1014 hPa | 0 mm | - | 15 W/m² | - |
| 1787851506 | 25° C | 55% | 1013.9 hPa | 0 mm | - | 22 W/m² | - |
| 1787851203 | 25° C | 54% | 1013.8 hPa | 0 mm | - | 31 W/m² | - |
| 1787850904 | 25.56° C | 54% | 1013.8 hPa | 0 mm | - | 40 W/m² | - |
* Rain latest hour (hover to see other rain measurements)
** Current wind speed in m/s (hover to see current wind gust speed)